| time (UTC) | temp F | wind direction | speed MPH | gust MPH | rain 1hr in | rain 24hr in | rain mn in | humidity % | barometer mb |
| 20260507171058 | 58 | 236 | 3.0 | 11.0 | 0.00 | 0.00 | 0.00 | 32 | 1011.4 |
| 20260507170558 | 58 | 28 | 2.0 | 8.0 | 0.00 | 0.00 | 0.00 | 32 | 1011.3 |
| 20260507170057 | 58 | 217 | 2.0 | 11.0 | 0.00 | 0.00 | 0.00 | 33 | 1011.4 |
| 20260507165558 | 58 | 78 | 3.0 | 11.0 | 0.00 | 0.00 | 0.00 | 33 | 1011.4 |
| 20260507165057 | 57 | 310 | 1.0 | 6.0 | 0.00 | 0.00 | 0.00 | 34 | 1011.4 |
| 20260507164556 | 57 | 184 | 2.0 | 6.0 | 0.00 | 0.00 | 0.00 | 31 | 1011.3 |
| 20260507164057 | 57 | 321 | 3.0 | 9.0 | 0.00 | 0.00 | 0.00 | 32 | 1011.5 |
| 20260507163558 | 57 | 272 | 3.0 | 9.0 | 0.00 | 0.00 | 0.00 | 33 | 1011.4 |
| 20260507163059 | 58 | 19 | 5.0 | 10.0 | 0.00 | 0.00 | 0.00 | 30 | 1011.5 |
| 20260507162555 | 58 | 360 | 4.0 | 10.0 | 0.00 | 0.00 | 0.00 | 31 | 1011.5 |
| 20260507162057 | 57 | 32 | 2.0 | 11.0 | 0.00 | 0.00 | 0.00 | 34 | 1011.5 |
| 20260507161605 | 56 | 190 | 1.0 | 11.0 | 0.00 | 0.00 | 0.00 | 33 | 1011.5 |
| 20260507161055 | 57 | 0 | 5.0 | 11.0 | 0.00 | 0.00 | 0.00 | 32 | 1011.6 |
| 20260507160558 | 57 | 337 | 2.0 | 5.0 | 0.00 | 0.00 | 0.00 | 34 | 1011.5 |
| 20260507160056 | 57 | 212 | 1.0 | 4.0 | 0.00 | 0.00 | 0.00 | 33 | 1011.6 |
| 20260507155554 | 57 | 217 | 1.0 | 6.0 | 0.00 | 0.00 | 0.00 | 35 | 1011.5 |
| 20260507155101 | 57 | 296 | 2.0 | 10.0 | 0.00 | 0.00 | 0.00 | 32 | 1011.5 |
| 20260507154603 | 56 | 329 | 3.0 | 10.0 | 0.00 | 0.00 | 0.00 | 35 | 1011.6 |
| 20260507154058 | 56 | 360 | 1.0 | 8.0 | 0.00 | 0.00 | 0.00 | 34 | 1011.5 |
| 20260507153557 | 56 | 0 | 2.0 | 10.0 | 0.00 | 0.00 | 0.00 | 33 | 1011.4 |
| 20260507153108 | 55 | 39 | 4.0 | 10.0 | 0.00 | 0.00 | 0.00 | 33 | 1011.5 |
| 20260507152558 | 55 | 9 | 1.0 | 8.0 | 0.00 | 0.00 | 0.00 | 37 | 1011.4 |
| 20260507152055 | 55 | 306 | 3.0 | 9.0 | 0.00 | 0.00 | 0.00 | 35 | 1011.5 |
| 20260507151556 | 54 | 360 | 3.0 | 12.0 | 0.00 | 0.00 | 0.00 | 38 | 1011.5 |
| 20260507151055 | 54 | 9 | 7.0 | 12.0 | 0.00 | 0.00 | 0.00 | 34 | 1011.5 |
| 20260507150555 | 54 | 69 | 0.0 | 6.0 | 0.00 | 0.00 | 0.00 | 37 | 1011.5 |
| 20260507150108 | 54 | 211 | 2.0 | 6.0 | 0.00 | 0.00 | 0.00 | 37 | 1011.4 |
| 20260507145556 | 53 | 68 | 1.0 | 6.0 | 0.00 | 0.00 | 0.00 | 38 | 1011.4 |
| 20260507145058 | 53 | 0 | 2.0 | 6.0 | 0.00 | 0.00 | 0.00 | 40 | 1011.4 |
| 20260507144602 | 53 | 138 | 2.0 | 7.0 | 0.00 | 0.00 | 0.00 | 38 | 1011.4 |
| 20260507144059 | 53 | 88 | 2.0 | 7.0 | 0.00 | 0.00 | 0.00 | 40 | 1011.4 |
| 20260507143556 | 52 | 50 | 1.0 | 7.0 | 0.00 | 0.00 | 0.00 | 41 | 1011.4 |
| 20260507143108 | 52 | 92 | 1.0 | 4.0 | 0.00 | 0.00 | 0.00 | 42 | 1011.5 |
| 20260507142557 | 51 | 133 | 2.0 | 7.0 | 0.00 | 0.00 | 0.00 | 44 | 1011.5 |
| 20260507142055 | 51 | 94 | 1.0 | 8.0 | 0.00 | 0.00 | 0.00 | 45 | 1011.4 |
| 20260507141559 | 51 | 113 | 1.0 | 8.0 | 0.00 | 0.00 | 0.00 | 45 | 1011.5 |
| 20260507141055 | 50 | 103 | 4.0 | 8.0 | 0.00 | 0.00 | 0.00 | 47 | 1011.5 |
| 20260507140555 | 49 | 136 | 4.0 | 8.0 | 0.00 | 0.00 | 0.00 | 46 | 1011.4 |
| 20260507140103 | 48 | 123 | 4.0 | 8.0 | 0.00 | 0.00 | 0.00 | 48 | 1011.4 |
| 20260507135555 | 48 | 130 | 5.0 | 8.0 | 0.00 | 0.00 | 0.00 | 49 | 1011.3 |
| 20260507135057 | 47 | 115 | 4.0 | 8.0 | 0.00 | 0.00 | 0.00 | 52 | 1011.4 |
| 20260507134557 | 46 | 128 | 4.0 | 8.0 | 0.00 | 0.00 | 0.00 | 52 | 1011.4 |
| 20260507134057 | 45 | 123 | 3.0 | 8.0 | 0.00 | 0.00 | 0.00 | 55 | 1011.3 |
| 20260507133554 | 44 | 111 | 4.0 | 8.0 | 0.00 | 0.00 | 0.00 | 56 | 1011.4 |
| 20260507133058 | 44 | 109 | 4.0 | 8.0 | 0.00 | 0.00 | 0.00 | 57 | 1011.3 |
| 20260507132558 | 43 | 120 | 3.0 | 7.0 | 0.00 | 0.00 | 0.00 | 57 | 1011.3 |
| 20260507132055 | 43 | 126 | 4.0 | 9.0 | 0.00 | 0.00 | 0.00 | 58 | 1011.3 |
| 20260507131558 | 42 | 119 | 4.0 | 9.0 | 0.00 | 0.00 | 0.00 | 58 | 1011.3 |
| 20260507131055 | 42 | 121 | 4.0 | 9.0 | 0.00 | 0.00 | 0.00 | 58 | 1011.3 |
| 20260507130555 | 41 | 110 | 5.0 | 9.0 | 0.00 | 0.00 | 0.00 | 58 | 1011.3 |
| 20260507130106 | 41 | 111 | 5.0 | 9.0 | 0.00 | 0.00 | 0.00 | 58 | 1011.5 |
| 20260507125554 | 40 | 101 | 5.0 | 11.0 | 0.00 | 0.00 | 0.00 | 59 | 1011.4 |
| 20260507125055 | 40 | 82 | 6.0 | 11.0 | 0.00 | 0.00 | 0.00 | 59 | 1011.4 |
| 20260507124600 | 40 | 87 | 6.0 | 10.0 | 0.00 | 0.00 | 0.00 | 60 | 1011.4 |
| 20260507124058 | 39 | 110 | 8.0 | 10.0 | 0.00 | 0.00 | 0.00 | 60 | 1011.4 |
| 20260507123555 | 38 | 55 | 7.0 | 10.0 | 0.00 | 0.00 | 0.00 | 62 | 1011.4 |
| 20260507123058 | 38 | 94 | 6.0 | 10.0 | 0.00 | 0.00 | 0.00 | 63 | 1011.4 |
| 20260507122557 | 37 | 99 | 6.0 | 10.0 | 0.00 | 0.00 | 0.00 | 64 | 1011.4 |
| 20260507122057 | 37 | 94 | 6.0 | 10.0 | 0.00 | 0.00 | 0.00 | 64 | 1011.3 |
| 20260507121600 | 36 | 92 | 5.0 | 8.0 | 0.00 | 0.00 | 0.00 | 66 | 1011.3 |
| 20260507121102 | 36 | 109 | 3.0 | 8.0 | 0.00 | 0.00 | 0.00 | 66 | 1011.3 |
| 20260507120557 | 36 | 107 | 4.0 | 7.0 | 0.00 | 0.00 | 0.00 | 66 | 1011.2 |
| 20260507120057 | 35 | 103 | 3.0 | 7.0 | 0.00 | 0.00 | 0.00 | 66 | 1011.1 |
| 20260507115557 | 35 | 102 | 4.0 | 7.0 | 0.00 | 0.00 | 0.00 | 65 | 1011.1 |
| 20260507115056 | 35 | 100 | 5.0 | 7.0 | 0.00 | 0.00 | 0.00 | 65 | 1011.0 |
| 20260507114601 | 35 | 91 | 3.0 | 10.0 | 0.00 | 0.00 | 0.00 | 65 | 1010.9 |
| 20260507114054 | 35 | 88 | 4.0 | 10.0 | 0.00 | 0.00 | 0.00 | 64 | 1010.9 |
| 20260507113557 | 35 | 106 | 5.0 | 10.0 | 0.00 | 0.00 | 0.00 | 64 | 1011.0 |
| 20260507113057 | 35 | 85 | 5.0 | 10.0 | 0.00 | 0.00 | 0.00 | 64 | 1011.1 |
| 20260507112559 | 35 | 75 | 5.0 | 10.0 | 0.00 | 0.00 | 0.00 | 63 | 1011.1 |
| 20260507112056 | 36 | 69 | 4.0 | 10.0 | 0.00 | 0.00 | 0.00 | 63 | 1011.3 |
| 20260507111557 | 36 | 77 | 4.0 | 8.0 | 0.00 | 0.00 | 0.00 | 63 | 1011.3 |
| 20260507111056 | 36 | 82 | 4.0 | 9.0 | 0.00 | 0.00 | 0.00 | 63 | 1011.4 |
| 20260507110557 | 36 | 58 | 4.0 | 10.0 | 0.00 | 0.00 | 0.00 | 64 | 1011.3 |
| 20260507105557 | 36 | 72 | 5.0 | 10.0 | 0.00 | 0.00 | 0.00 | 64 | 1011.4 |
| 20260507105057 | 36 | 91 | 6.0 | 10.0 | 0.00 | 0.00 | 0.00 | 64 | 1011.5 |
| 20260507104603 | 36 | 74 | 3.0 | 9.0 | 0.00 | 0.00 | 0.00 | 65 | 1011.4 |
| 20260507104057 | 36 | 74 | 4.0 | 9.0 | 0.00 | 0.00 | 0.00 | 66 | 1011.4 |
| 20260507103556 | 36 | 71 | 5.0 | 9.0 | 0.00 | 0.00 | 0.00 | 66 | 1011.5 |
| 20260507103129 | 36 | 99 | 4.0 | 10.0 | 0.00 | 0.00 | 0.00 | 66 | 1011.5 |
| 20260507102557 | 36 | 63 | 4.0 | 10.0 | 0.00 | 0.00 | 0.00 | 66 | 1011.8 |
| 20260507102055 | 36 | 69 | 4.0 | 10.0 | 0.00 | 0.00 | 0.00 | 66 | 1011.8 |
| 20260507101558 | 36 | 67 | 3.0 | 10.0 | 0.00 | 0.00 | 0.00 | 65 | 1011.9 |
| 20260507101054 | 36 | 63 | 3.0 | 12.0 | 0.00 | 0.00 | 0.00 | 65 | 1011.9 |
| 20260507100556 | 36 | 68 | 4.0 | 12.0 | 0.00 | 0.00 | 0.00 | 64 | 1011.8 |
| 20260507100108 | 36 | 76 | 4.0 | 9.0 | 0.00 | 0.00 | 0.00 | 64 | 1011.7 |
| 20260507095558 | 36 | 53 | 4.0 | 9.0 | 0.00 | 0.00 | 0.00 | 63 | 1011.8 |
| 20260507095056 | 36 | 56 | 4.0 | 7.0 | 0.00 | 0.00 | 0.00 | 63 | 1012.0 |
| 20260507094559 | 36 | 60 | 3.0 | 8.0 | 0.00 | 0.00 | 0.00 | 63 | 1012.0 |
| 20260507094055 | 37 | 87 | 3.0 | 9.0 | 0.00 | 0.00 | 0.00 | 62 | 1012.0 |
| 20260507093558 | 37 | 88 | 4.0 | 9.0 | 0.00 | 0.00 | 0.00 | 62 | 1012.1 |
| 20260507093101 | 37 | 95 | 5.0 | 10.0 | 0.00 | 0.00 | 0.00 | 62 | 1012.1 |
| 20260507092555 | 37 | 80 | 5.0 | 10.0 | 0.00 | 0.00 | 0.00 | 62 | 1012.1 |
| 20260507092058 | 37 | 72 | 3.0 | 11.0 | 0.00 | 0.00 | 0.00 | 62 | 1012.1 |
| 20260507091557 | 37 | 66 | 6.0 | 11.0 | 0.00 | 0.00 | 0.00 | 62 | 1012.0 |
| 20260507091057 | 37 | 57 | 6.0 | 10.0 | 0.00 | 0.00 | 0.00 | 63 | 1011.9 |
| 20260507090557 | 37 | 83 | 4.0 | 11.0 | 0.00 | 0.00 | 0.00 | 63 | 1012.1 |
| 20260507090100 | 36 | 94 | 6.0 | 11.0 | 0.00 | 0.00 | 0.00 | 63 | 1012.0 |
| 20260507085555 | 36 | 61 | 4.0 | 10.0 | 0.00 | 0.00 | 0.00 | 64 | 1012.2 |
| 20260507085059 | 36 | 78 | 5.0 | 10.0 | 0.00 | 0.00 | 0.00 | 64 | 1012.3 |
| 20260507084605 | 36 | 95 | 4.0 | 10.0 | 0.00 | 0.00 | 0.00 | 64 | 1012.2 |
| 20260507084054 | 36 | 71 | 5.0 | 10.0 | 0.00 | 0.00 | 0.00 | 64 | 1012.2 |
| 20260507083558 | 36 | 61 | 5.0 | 9.0 | 0.00 | 0.00 | 0.00 | 65 | 1012.2 |
| 20260507083057 | 35 | 62 | 4.0 | 8.0 | 0.00 | 0.00 | 0.00 | 65 | 1012.2 |
| 20260507082557 | 35 | 60 | 4.0 | 8.0 | 0.00 | 0.00 | 0.00 | 65 | 1012.2 |
| 20260507082054 | 35 | 68 | 4.0 | 8.0 | 0.00 | 0.00 | 0.00 | 65 | 1012.3 |
| 20260507081559 | 35 | 63 | 3.0 | 6.0 | 0.00 | 0.00 | 0.00 | 65 | 1012.4 |
| 20260507081058 | 35 | 87 | 2.0 | 4.0 | 0.00 | 0.00 | 0.00 | 65 | 1012.5 |
| 20260507080557 | 35 | 25 | 2.0 | 5.0 | 0.00 | 0.00 | 0.00 | 65 | 1012.5 |
| 20260507080056 | 36 | 67 | 2.0 | 8.0 | 0.00 | 0.00 | 0.00 | 64 | 1012.5 |
| 20260507075559 | 36 | 51 | 2.0 | 8.0 | 0.00 | 0.00 | 0.00 | 64 | 1012.3 |
| 20260507075057 | 36 | 54 | 3.0 | 8.0 | 0.00 | 0.00 | 0.00 | 64 | 1012.2 |
| 20260507074605 | 36 | 74 | 3.0 | 7.0 | 0.00 | 0.00 | 0.00 | 63 | 1012.2 |
| 20260507074056 | 36 | 73 | 3.0 | 7.0 | 0.00 | 0.00 | 0.00 | 63 | 1012.2 |
| 20260507073556 | 36 | 62 | 3.0 | 8.0 | 0.00 | 0.00 | 0.00 | 63 | 1012.2 |
| 20260507073129 | 36 | 57 | 3.0 | 8.0 | 0.00 | 0.00 | 0.00 | 62 | 1012.2 |
| 20260507072600 | 37 | 71 | 4.0 | 9.0 | 0.00 | 0.00 | 0.00 | 62 | 1012.3 |
| 20260507072059 | 37 | 73 | 5.0 | 9.0 | 0.00 | 0.00 | 0.00 | 61 | 1012.2 |
| 20260507071606 | 37 | 63 | 3.0 | 8.0 | 0.00 | 0.00 | 0.00 | 61 | 1012.2 |
| 20260507071059 | 37 | 95 | 5.0 | 8.0 | 0.00 | 0.00 | 0.00 | 60 | 1012.4 |
| 20260507070559 | 38 | 74 | 4.0 | 8.0 | 0.00 | 0.00 | 0.00 | 61 | 1012.4 |
| 20260507070108 | 38 | 82 | 2.0 | 5.0 | 0.00 | 0.00 | 0.00 | 61 | 1012.7 |
| 20260507065559 | 38 | 74 | 3.0 | 5.0 | 0.00 | 0.00 | 0.00 | 60 | 1012.8 |
| 20260507065059 | 38 | 54 | 2.0 | 7.0 | 0.00 | 0.00 | 0.00 | 61 | 1012.8 |
| 20260507064607 | 38 | 64 | 3.0 | 7.0 | 0.00 | 0.00 | 0.00 | 60 | 1012.8 |
| 20260507064102 | 38 | 71 | 3.0 | 7.0 | 0.00 | 0.00 | 0.00 | 60 | 1012.8 |
| 20260507063600 | 38 | 61 | 3.0 | 7.0 | 0.00 | 0.00 | 0.00 | 60 | 1012.9 |
| 20260507063100 | 38 | 79 | 2.0 | 6.0 | 0.00 | 0.00 | 0.00 | 61 | 1013.0 |
| 20260507062602 | 38 | 58 | 3.0 | 7.0 | 0.00 | 0.00 | 0.00 | 61 | 1013.0 |
| 20260507062059 | 38 | 60 | 2.0 | 7.0 | 0.00 | 0.00 | 0.00 | 60 | 1013.0 |
| 20260507061558 | 38 | 80 | 3.0 | 7.0 | 0.00 | 0.00 | 0.00 | 61 | 1013.0 |
| 20260507061059 | 38 | 56 | 3.0 | 6.0 | 0.00 | 0.00 | 0.00 | 61 | 1012.9 |
| 20260507060557 | 38 | 76 | 3.0 | 7.0 | 0.00 | 0.00 | 0.00 | 60 | 1012.8 |
| 20260507055600 | 38 | 122 | 3.0 | 7.0 | 0.00 | 0.00 | 0.00 | 59 | 1012.8 |
| 20260507055059 | 38 | 121 | 3.0 | 7.0 | 0.00 | 0.00 | 0.00 | 59 | 1013.0 |
| 20260507054614 | 39 | 111 | 5.0 | 7.0 | 0.00 | 0.00 | 0.00 | 60 | 1013.1 |
| 20260507054059 | 38 | 101 | 5.0 | 7.0 | 0.00 | 0.00 | 0.00 | 60 | 1013.3 |
| 20260507053602 | 38 | 99 | 3.0 | 6.0 | 0.00 | 0.00 | 0.00 | 60 | 1013.4 |
| 20260507053106 | 38 | 78 | 3.0 | 8.0 | 0.00 | 0.00 | 0.00 | 61 | 1013.5 |
| 20260507052559 | 38 | 91 | 3.0 | 9.0 | 0.00 | 0.00 | 0.00 | 61 | 1013.6 |
| 20260507052059 | 38 | 90 | 4.0 | 9.0 | 0.00 | 0.00 | 0.00 | 62 | 1013.6 |
| 20260507051600 | 38 | 74 | 4.0 | 8.0 | 0.00 | 0.00 | 0.00 | 62 | 1013.7 |
| 20260507051102 | 38 | 84 | 2.0 | 7.0 | 0.00 | 0.00 | 0.00 | 61 | 1013.7 |
| 20260507050559 | 38 | 90 | 2.0 | 8.0 | 0.00 | 0.00 | 0.00 | 60 | 1013.7 |
| 20260507045559 | 38 | 76 | 3.0 | 7.0 | 0.00 | 0.00 | 0.00 | 60 | 1013.7 |
| 20260507045059 | 38 | 63 | 2.0 | 6.0 | 0.00 | 0.00 | 0.00 | 61 | 1013.8 |
| 20260507044600 | 38 | 65 | 2.0 | 6.0 | 0.00 | 0.00 | 0.00 | 62 | 1013.8 |
| 20260507044058 | 38 | 59 | 2.0 | 4.0 | 0.00 | 0.00 | 0.00 | 62 | 1013.9 |
| 20260507043559 | 38 | 73 | 2.0 | 4.0 | 0.00 | 0.00 | 0.00 | 62 | 1013.9 |
| 20260507043057 | 38 | 45 | 2.0 | 5.0 | 0.00 | 0.00 | 0.00 | 62 | 1014.0 |
| 20260507042600 | 37 | 61 | 2.0 | 5.0 | 0.00 | 0.00 | 0.00 | 62 | 1014.0 |
| 20260507042102 | 37 | 67 | 2.0 | 4.0 | 0.00 | 0.00 | 0.00 | 63 | 1014.0 |
| 20260507041613 | 37 | 38 | 2.0 | 4.0 | 0.00 | 0.00 | 0.00 | 63 | 1014.0 |
| 20260507041101 | 37 | 61 | 2.0 | 4.0 | 0.00 | 0.00 | 0.00 | 63 | 1014.0 |
| 20260507040558 | 37 | 57 | 2.0 | 5.0 | 0.00 | 0.00 | 0.00 | 63 | 1014.1 |
| 20260507035554 | 37 | 44 | 2.0 | 5.0 | 0.00 | 0.00 | 0.00 | 61 | 1014.1 |
| 20260507035057 | 37 | 65 | 2.0 | 5.0 | 0.00 | 0.00 | 0.00 | 60 | 1014.0 |
| 20260507034605 | 37 | 66 | 2.0 | 4.0 | 0.00 | 0.00 | 0.00 | 59 | 1014.0 |
| 20260507034057 | 37 | 53 | 2.0 | 5.0 | 0.00 | 0.00 | 0.00 | 59 | 1014.1 |
| 20260507033557 | 38 | 69 | 2.0 | 5.0 | 0.00 | 0.00 | 0.00 | 58 | 1014.0 |
| 20260507033056 | 38 | 61 | 2.0 | 4.0 | 0.00 | 0.00 | 0.00 | 57 | 1014.1 |
| 20260507032602 | 38 | 65 | 1.0 | 4.0 | 0.00 | 0.00 | 0.00 | 57 | 1014.2 |
| 20260507032101 | 39 | 60 | 2.0 | 5.0 | 0.00 | 0.00 | 0.00 | 56 | 1014.1 |
| 20260507031600 | 39 | 45 | 2.0 | 5.0 | 0.00 | 0.00 | 0.00 | 55 | 1014.1 |
| 20260507031057 | 40 | 61 | 2.0 | 5.0 | 0.00 | 0.00 | 0.00 | 54 | 1014.1 |
| 20260507030557 | 40 | 60 | 1.0 | 4.0 | 0.00 | 0.00 | 0.00 | 54 | 1014.1 |
| 20260507030058 | 41 | 53 | 1.0 | 4.0 | 0.00 | 0.00 | 0.00 | 53 | 1014.0 |
| 20260507025555 | 41 | 57 | 1.0 | 6.0 | 0.00 | 0.00 | 0.00 | 52 | 1014.1 |
| 20260507025057 | 42 | 58 | 2.0 | 6.0 | 0.00 | 0.00 | 0.00 | 51 | 1014.0 |
| 20260507024557 | 42 | 46 | 3.0 | 6.0 | 0.00 | 0.00 | 0.00 | 50 | 1014.0 |
| 20260507024054 | 43 | 40 | 2.0 | 5.0 | 0.00 | 0.00 | 0.00 | 49 | 1014.0 |
| 20260507023557 | 43 | 38 | 2.0 | 3.0 | 0.00 | 0.00 | 0.00 | 49 | 1014.0 |
| 20260507023056 | 44 | 40 | 1.0 | 4.0 | 0.00 | 0.00 | 0.00 | 48 | 1014.0 |
| 20260507022557 | 44 | 26 | 2.0 | 4.0 | 0.00 | 0.00 | 0.00 | 48 | 1014.0 |
| 20260507022058 | 45 | 21 | 2.0 | 4.0 | 0.00 | 0.00 | 0.00 | 47 | 1014.0 |
| 20260507021627 | 45 | 10 | 2.0 | 3.0 | 0.00 | 0.00 | 0.00 | 46 | 1014.0 |
| 20260507021057 | 45 | 21 | 1.0 | 3.0 | 0.00 | 0.00 | 0.00 | 46 | 1014.0 |
| 20260507020558 | 45 | 19 | 1.0 | 3.0 | 0.00 | 0.00 | 0.00 | 45 | 1014.0 |
| 20260507020112 | 46 | 360 | 1.0 | 3.0 | 0.00 | 0.00 | 0.00 | 45 | 1013.9 |
| 20260507015559 | 46 | 355 | 0.0 | 3.0 | 0.00 | 0.00 | 0.00 | 45 | 1013.9 |
| 20260507015057 | 46 | 5 | 1.0 | 4.0 | 0.00 | 0.00 | 0.00 | 44 | 1013.9 |
| 20260507014621 | 47 | 319 | 1.0 | 4.0 | 0.00 | 0.00 | 0.00 | 44 | 1013.8 |
| 20260507014054 | 47 | 326 | 0.0 | 4.0 | 0.00 | 0.00 | 0.00 | 44 | 1013.8 |
| 20260507013554 | 47 | 338 | 1.0 | 5.0 | 0.00 | 0.00 | 0.00 | 43 | 1013.8 |
| 20260507013058 | 48 | 0 | 1.0 | 5.0 | 0.00 | 0.00 | 0.00 | 43 | 1013.8 |
| 20260507012554 | 48 | 350 | 2.0 | 5.0 | 0.00 | 0.00 | 0.00 | 43 | 1013.8 |
| 20260507012054 | 48 | 351 | 2.0 | 24.0 | 0.00 | 0.00 | 0.00 | 42 | 1013.8 |
| 20260507011601 | 48 | 310 | 2.0 | 24.0 | 0.00 | 0.00 | 0.00 | 42 | 1013.8 |